| time (UTC) | temp F | wind direction | speed MPH | gust MPH | rain 1hr in | rain 24hr in | rain mn in | humidity % | barometer mb |
| 20260905060450 | 57 | 273 | 0.0 | 3.0 | 0.00 | 0.01 | 0.01 | 94 | 1015.9 |
| 20260905055422 | 57 | 272 | 2.0 | 4.0 | 0.00 | 0.01 | 0.01 | 94 | 1016.0 |
| 20260905054433 | 57 | 270 | 2.0 | 5.0 | 0.00 | 0.01 | 0.01 | 94 | 1016.1 |
| 20260905053431 | 57 | 277 | 1.0 | 3.0 | 0.00 | 0.01 | 0.01 | 94 | 1016.2 |
| 20260905052424 | 57 | 277 | 2.0 | 4.0 | 0.00 | 0.01 | 0.01 | 94 | 1016.2 |
| 20260905051416 | 57 | 276 | 2.0 | 4.0 | 0.00 | 0.01 | 0.01 | 94 | 1016.3 |
| 20260905050414 | 57 | 289 | 1.0 | 2.0 | 0.00 | 0.01 | 0.01 | 94 | 1016.4 |
| 20260905045424 | 58 | 289 | 0.0 | 3.0 | 0.00 | 0.01 | 0.01 | 94 | 1016.3 |
| 20260905044417 | 58 | 317 | 0.0 | 4.0 | 0.00 | 0.01 | 0.01 | 94 | 1016.3 |
| 20260905043449 | 58 | 277 | 0.0 | 4.0 | 0.00 | 0.01 | 0.01 | 93 | 1016.2 |
| 20260905042425 | 58 | 302 | 1.0 | 2.0 | 0.00 | 0.01 | 0.01 | 93 | 1016.1 |
| 20260905041417 | 58 | 302 | 1.0 | 4.0 | 0.00 | 0.01 | 0.01 | 93 | 1016.0 |
| 20260905040429 | 58 | 302 | 0.0 | 3.0 | 0.00 | 0.01 | 0.01 | 92 | 1016.0 |
| 20260905035443 | 58 | 286 | 1.0 | 3.0 | 0.00 | 0.01 | 0.01 | 92 | 1016.0 |
| 20260905034418 | 59 | 261 | 1.0 | 4.0 | 0.00 | 0.01 | 0.01 | 91 | 1015.9 |
| 20260905033433 | 59 | 305 | 0.0 | 4.0 | 0.00 | 0.01 | 0.01 | 91 | 1015.9 |
| 20260905032446 | 59 | 305 | 1.0 | 3.0 | 0.00 | 0.01 | 0.01 | 90 | 1015.8 |
| 20260905031418 | 60 | 305 | 0.0 | 2.0 | 0.00 | 0.01 | 0.01 | 89 | 1015.9 |
| 20260905030415 | 60 | 269 | 0.0 | 6.0 | 0.00 | 0.01 | 0.01 | 88 | 1015.9 |
| 20260905025427 | 60 | 297 | 2.0 | 6.0 | 0.00 | 0.01 | 0.01 | 87 | 1015.9 |
| 20260905024419 | 61 | 286 | 4.0 | 8.0 | 0.00 | 0.01 | 0.01 | 86 | 1015.8 |
| 20260905023433 | 61 | 316 | 4.0 | 7.0 | 0.00 | 0.01 | 0.01 | 85 | 1015.9 |
| 20260905022450 | 62 | 304 | 4.0 | 10.0 | 0.00 | 0.01 | 0.01 | 84 | 1015.8 |
| 20260905021423 | 63 | 310 | 2.0 | 10.0 | 0.00 | 0.01 | 0.01 | 82 | 1015.7 |
| 20260905020417 | 63 | 305 | 7.0 | 16.0 | 0.00 | 0.01 | 0.01 | 81 | 1015.6 |
| 20260905015429 | 64 | 284 | 6.0 | 12.0 | 0.00 | 0.01 | 0.01 | 80 | 1015.6 |
| 20260905014427 | 64 | 304 | 6.0 | 11.0 | 0.00 | 0.01 | 0.01 | 78 | 1015.7 |
| 20260905013421 | 65 | 341 | 4.0 | 14.0 | 0.00 | 0.01 | 0.01 | 78 | 1015.8 |
| 20260905012415 | 65 | 324 | 8.0 | 13.0 | 0.00 | 0.01 | 0.01 | 79 | 1015.7 |
| 20260905011413 | 65 | 316 | 7.0 | 12.0 | 0.00 | 0.01 | 0.01 | 79 | 1015.8 |
| 20260905010427 | 66 | 308 | 4.0 | 14.0 | 0.00 | 0.01 | 0.01 | 78 | 1015.7 |
| 20260905005440 | 66 | 264 | 6.0 | 16.0 | 0.00 | 0.01 | 0.01 | 73 | 1015.6 |
| 20260905004432 | 66 | 282 | 5.0 | 16.0 | 0.00 | 0.01 | 0.01 | 74 | 1015.6 |
| 20260905003430 | 66 | 294 | 7.0 | 13.0 | 0.00 | 0.01 | 0.01 | 75 | 1015.4 |
| 20260905002424 | 67 | 310 | 4.0 | 17.0 | 0.00 | 0.01 | 0.01 | 75 | 1015.5 |
| 20260905001416 | 67 | 306 | 9.0 | 17.0 | 0.00 | 0.01 | 0.01 | 75 | 1015.4 |
| 20260905000449 | 68 | 255 | 4.0 | 12.0 | 0.00 | 0.01 | 0.01 | 74 | 1015.4 |
| 20260904235423 | 67 | 330 | 7.0 | 14.0 | 0.00 | 0.02 | 0.01 | 75 | 1015.4 |
| 20260904234415 | 68 | 313 | 11.0 | 19.0 | 0.00 | 0.02 | 0.01 | 74 | 1015.3 |
| 20260904233429 | 69 | 312 | 6.0 | 15.0 | 0.00 | 0.02 | 0.01 | 73 | 1015.3 |
| 20260904232428 | 69 | 327 | 7.0 | 15.0 | 0.00 | 0.02 | 0.01 | 71 | 1015.5 |
| 20260904231422 | 69 | 305 | 10.0 | 17.0 | 0.00 | 0.02 | 0.01 | 71 | 1015.4 |
| 20260904230415 | 69 | 313 | 4.0 | 14.0 | 0.00 | 0.02 | 0.01 | 72 | 1015.4 |
| 20260904225426 | 69 | 328 | 5.0 | 15.0 | 0.00 | 0.02 | 0.01 | 71 | 1015.4 |
| 20260904224424 | 69 | 295 | 6.0 | 16.0 | 0.00 | 0.02 | 0.01 | 69 | 1015.4 |
| 20260904223418 | 70 | 301 | 9.0 | 15.0 | 0.00 | 0.02 | 0.01 | 68 | 1015.5 |
| 20260904222431 | 69 | 304 | 9.0 | 17.0 | 0.00 | 0.02 | 0.01 | 66 | 1015.3 |
| 20260904221448 | 70 | 308 | 9.0 | 19.0 | 0.00 | 0.02 | 0.01 | 64 | 1015.4 |
| 20260904220441 | 70 | 322 | 7.0 | 13.0 | 0.00 | 0.02 | 0.01 | 65 | 1015.5 |
| 20260904215431 | 69 | 323 | 9.0 | 17.0 | 0.00 | 0.02 | 0.01 | 65 | 1015.5 |
| 20260904214444 | 70 | 323 | 9.0 | 17.0 | 0.00 | 0.02 | 0.01 | 66 | 1015.6 |
| 20260904213420 | 70 | 322 | 8.0 | 17.0 | 0.00 | 0.02 | 0.01 | 67 | 1015.6 |
| 20260904212435 | 70 | 322 | 9.0 | 16.0 | 0.00 | 0.02 | 0.01 | 66 | 1015.5 |
| 20260904211447 | 70 | 227 | 11.0 | 18.0 | 0.00 | 0.02 | 0.01 | 64 | 1015.5 |
| 20260904210421 | 71 | 316 | 8.0 | 13.0 | 0.00 | 0.02 | 0.01 | 63 | 1015.4 |
| 20260904205418 | 70 | 319 | 8.0 | 16.0 | 0.00 | 0.02 | 0.01 | 64 | 1015.4 |
| 20260904204431 | 70 | 296 | 8.0 | 17.0 | 0.00 | 0.02 | 0.01 | 66 | 1015.5 |
| 20260904203423 | 71 | 293 | 9.0 | 14.0 | 0.00 | 0.02 | 0.01 | 64 | 1015.5 |
| 20260904202436 | 71 | 275 | 4.0 | 11.0 | 0.00 | 0.02 | 0.01 | 63 | 1015.4 |
| 20260904201432 | 71 | 251 | 4.0 | 10.0 | 0.00 | 0.02 | 0.01 | 62 | 1015.4 |
| 20260904200427 | 71 | 272 | 4.0 | 11.0 | 0.00 | 0.02 | 0.01 | 63 | 1015.3 |
| 20260904195417 | 70 | 286 | 3.0 | 7.0 | 0.00 | 0.02 | 0.01 | 64 | 1015.5 |
| 20260904194430 | 69 | 340 | 4.0 | 10.0 | 0.00 | 0.02 | 0.01 | 62 | 1015.6 |
| 20260904193428 | 69 | 343 | 1.0 | 6.0 | 0.00 | 0.02 | 0.01 | 67 | 1015.6 |
| 20260904192420 | 69 | 345 | 3.0 | 8.0 | 0.00 | 0.02 | 0.01 | 65 | 1015.8 |
| 20260904101435 | 56 | 314 | 0.0 | 0.0 | 0.00 | 0.11 | 0.00 | 96 | 1013.7 |
| 20260904100428 | 56 | 314 | 0.0 | 2.0 | 0.00 | 0.11 | 0.00 | 96 | 1013.8 |
| 20260904095420 | 57 | 314 | 0.0 | 2.0 | 0.00 | 0.11 | 0.00 | 96 | 1013.7 |
| 20260904094414 | 56 | 314 | 0.0 | 1.0 | 0.00 | 0.11 | 0.00 | 96 | 1013.7 |
| 20260904093433 | 56 | 314 | 0.0 | 1.0 | 0.00 | 0.11 | 0.00 | 96 | 1013.8 |
| 20260904092426 | 56 | 314 | 0.0 | 0.0 | 0.00 | 0.11 | 0.00 | 96 | 1013.7 |
| 20260904091420 | 56 | 314 | 0.0 | 0.0 | 0.00 | 0.11 | 0.00 | 96 | 1013.8 |
| 20260904090418 | 56 | 314 | 0.0 | 0.0 | 0.00 | 0.11 | 0.00 | 96 | 1013.8 |
| 20260904085429 | 56 | 314 | 0.0 | 0.0 | 0.00 | 0.11 | 0.00 | 96 | 1013.8 |
| 20260904084421 | 56 | 314 | 0.0 | 0.0 | 0.00 | 0.11 | 0.00 | 96 | 1013.8 |
| 20260904083414 | 56 | 314 | 0.0 | 0.0 | 0.00 | 0.11 | 0.00 | 96 | 1013.9 |
| 20260904082431 | 57 | 314 | 0.0 | 1.0 | 0.00 | 0.11 | 0.00 | 95 | 1013.8 |
| 20260904081423 | 57 | 314 | 0.0 | 5.0 | 0.00 | 0.11 | 0.00 | 96 | 1013.8 |
| 20260904080417 | 57 | 308 | 1.0 | 3.0 | 0.00 | 0.11 | 0.00 | 96 | 1013.8 |
| 20260904075414 | 57 | 305 | 1.0 | 3.0 | 0.00 | 0.11 | 0.00 | 95 | 1013.7 |
| 20260904074426 | 57 | 301 | 1.0 | 3.0 | 0.00 | 0.11 | 0.00 | 96 | 1013.7 |
| 20260904073439 | 57 | 289 | 0.0 | 3.0 | 0.00 | 0.11 | 0.00 | 95 | 1013.7 |
| 20260904072432 | 58 | 285 | 0.0 | 4.0 | 0.00 | 0.11 | 0.00 | 95 | 1013.6 |
| 20260904071430 | 58 | 295 | 2.0 | 7.0 | 0.00 | 0.11 | 0.00 | 95 | 1013.6 |
| 20260904070422 | 58 | 297 | 2.0 | 6.0 | 0.00 | 0.11 | 0.00 | 95 | 1013.6 |
| 20260904065453 | 58 | 296 | 3.0 | 6.0 | 0.00 | 0.11 | 0.11 | 95 | 1013.7 |
| 20260904064425 | 58 | 315 | 3.0 | 7.0 | 0.00 | 0.11 | 0.11 | 95 | 1013.7 |
| 20260904063424 | 59 | 298 | 2.0 | 7.0 | 0.00 | 0.11 | 0.11 | 95 | 1013.6 |
| 20260904062416 | 59 | 305 | 1.0 | 4.0 | 0.00 | 0.11 | 0.11 | 95 | 1013.6 |
| 20260904061430 | 59 | 324 | 4.0 | 9.0 | 0.00 | 0.11 | 0.11 | 95 | 1013.5 |